Year,Month,Day,Hour,Minute,Value (Times are PST for temperature in C)
2017,05,21,00,00,11.40
2017,05,21,00,01,11.40
2017,05,21,00,02,11.40
2017,05,21,00,03,11.40
2017,05,21,00,04,11.30
2017,05,21,00,05,11.30
2017,05,21,00,06,11.30
2017,05,21,00,07,11.30
2017,05,21,00,08,11.30
2017,05,21,00,09,11.30
2017,05,21,00,10,11.30
2017,05,21,00,11,11.30
2017,05,21,00,12,11.20
2017,05,21,00,13,11.20
2017,05,21,00,14,11.20
2017,05,21,00,15,11.20
2017,05,21,00,16,11.20
2017,05,21,00,17,11.20
2017,05,21,00,18,11.10
2017,05,21,00,19,11.10
2017,05,21,00,20,11.10
2017,05,21,00,21,11.10
2017,05,21,00,22,11.10
2017,05,21,00,23,11.10
2017,05,21,00,24,11.10
2017,05,21,00,25,11.00
2017,05,21,00,26,11.00
2017,05,21,00,27,11.00
2017,05,21,00,28,11.00
2017,05,21,00,29,10.90
2017,05,21,00,30,10.90
2017,05,21,00,31,10.90
2017,05,21,00,32,10.90
2017,05,21,00,33,10.90
2017,05,21,00,34,10.90
2017,05,21,00,35,10.90
2017,05,21,00,36,10.90
2017,05,21,00,37,10.80
2017,05,21,00,38,10.80
2017,05,21,00,39,10.80
2017,05,21,00,40,10.80
2017,05,21,00,41,10.80
2017,05,21,00,42,10.80
2017,05,21,00,43,10.80
2017,05,21,00,44,10.80
2017,05,21,00,45,10.80
2017,05,21,00,46,10.80
2017,05,21,00,47,10.80
2017,05,21,00,48,10.80
2017,05,21,00,49,10.80
2017,05,21,00,50,10.80
2017,05,21,00,51,10.70
2017,05,21,00,52,10.70
2017,05,21,00,53,10.70
2017,05,21,00,54,10.70
2017,05,21,00,55,10.70
2017,05,21,00,56,10.70
2017,05,21,00,57,10.70
2017,05,21,00,58,10.70
2017,05,21,00,59,10.70
2017,05,21,01,00,10.70
2017,05,21,01,01,10.70
2017,05,21,01,02,10.70
2017,05,21,01,03,10.70
2017,05,21,01,04,10.70
2017,05,21,01,05,10.70
2017,05,21,01,06,10.70
2017,05,21,01,07,10.70
2017,05,21,01,08,10.70
2017,05,21,01,09,10.70
2017,05,21,01,10,10.70
2017,05,21,01,11,10.70
2017,05,21,01,12,10.70
2017,05,21,01,13,10.70
2017,05,21,01,14,10.70
2017,05,21,01,15,10.70
2017,05,21,01,16,10.60
2017,05,21,01,17,10.60
2017,05,21,01,18,10.60
2017,05,21,01,19,10.60
2017,05,21,01,20,10.60
2017,05,21,01,21,10.70
2017,05,21,01,22,10.60
2017,05,21,01,23,10.60
2017,05,21,01,24,10.60
2017,05,21,01,25,10.60
2017,05,21,01,26,10.60
2017,05,21,01,27,10.60
2017,05,21,01,28,10.60
2017,05,21,01,29,10.60
2017,05,21,01,30,10.60
2017,05,21,01,31,10.60
2017,05,21,01,32,10.60
2017,05,21,01,33,10.60
2017,05,21,01,34,10.60
2017,05,21,01,35,10.60
2017,05,21,01,36,10.60
2017,05,21,01,37,10.60
2017,05,21,01,38,10.60
2017,05,21,01,39,10.60
2017,05,21,01,40,10.50
2017,05,21,01,41,10.60
2017,05,21,01,42,10.60
2017,05,21,01,43,10.60
2017,05,21,01,44,10.60
2017,05,21,01,45,10.60
2017,05,21,01,46,10.60
2017,05,21,01,47,10.60
2017,05,21,01,48,10.60
2017,05,21,01,49,10.60
2017,05,21,01,50,10.60
2017,05,21,01,51,10.60
2017,05,21,01,52,10.60
2017,05,21,01,53,10.60
2017,05,21,01,54,10.60
2017,05,21,01,55,10.60
2017,05,21,01,56,10.60
2017,05,21,01,57,10.60
2017,05,21,01,58,10.60
2017,05,21,01,59,10.60
2017,05,21,02,00,10.60
2017,05,21,02,01,10.60
2017,05,21,02,02,10.60
2017,05,21,02,03,10.60
2017,05,21,02,04,10.60
2017,05,21,02,05,10.60
2017,05,21,02,06,10.60
2017,05,21,02,07,10.60
2017,05,21,02,08,10.60
2017,05,21,02,09,10.60
2017,05,21,02,10,10.50
2017,05,21,02,11,10.60
2017,05,21,02,12,10.50
2017,05,21,02,13,10.50
2017,05,21,02,14,10.50
2017,05,21,02,15,10.50
2017,05,21,02,16,10.50
2017,05,21,02,17,10.50
2017,05,21,02,18,10.50
2017,05,21,02,19,10.50
2017,05,21,02,20,10.50
2017,05,21,02,21,10.50
2017,05,21,02,22,10.50
2017,05,21,02,23,10.50
2017,05,21,02,24,10.40
2017,05,21,02,25,10.40
2017,05,21,02,26,10.40
2017,05,21,02,27,10.50
2017,05,21,02,28,10.50
2017,05,21,02,29,10.50
2017,05,21,02,30,10.50
2017,05,21,02,31,10.50
2017,05,21,02,32,10.50
2017,05,21,02,33,10.40
2017,05,21,02,34,10.40
2017,05,21,02,35,10.40
2017,05,21,02,36,10.40
2017,05,21,02,37,10.40
2017,05,21,02,38,10.40
2017,05,21,02,39,10.40
2017,05,21,02,40,10.40
2017,05,21,02,41,10.40
2017,05,21,02,42,10.40
2017,05,21,02,43,10.40
2017,05,21,02,44,10.40
2017,05,21,02,45,10.40
2017,05,21,02,46,10.30
2017,05,21,02,47,10.30
2017,05,21,02,48,10.30
2017,05,21,02,49,10.30
2017,05,21,02,50,10.30
2017,05,21,02,51,10.30
2017,05,21,02,52,10.30
2017,05,21,02,53,10.30
2017,05,21,02,54,10.30
2017,05,21,02,55,10.30
2017,05,21,02,56,10.30
2017,05,21,02,57,10.30
2017,05,21,02,58,10.30
2017,05,21,02,59,10.30
2017,05,21,03,00,10.30
2017,05,21,03,01,10.20
2017,05,21,03,02,10.20
2017,05,21,03,03,10.20
2017,05,21,03,04,10.20
2017,05,21,03,05,10.20
2017,05,21,03,06,10.20
2017,05,21,03,07,10.20
2017,05,21,03,08,10.20
2017,05,21,03,09,10.20
2017,05,21,03,10,10.20
2017,05,21,03,11,10.20
2017,05,21,03,12,10.20
2017,05,21,03,13,10.20
2017,05,21,03,14,10.20
2017,05,21,03,15,10.20
2017,05,21,03,16,10.20
2017,05,21,03,17,10.20
2017,05,21,03,18,10.10
2017,05,21,03,19,10.10
2017,05,21,03,20,10.10
2017,05,21,03,21,10.10
2017,05,21,03,22,10.10
2017,05,21,03,23,10.10
2017,05,21,03,24,10.10
2017,05,21,03,25,10.10
2017,05,21,03,26,10.10
2017,05,21,03,27,10.10
2017,05,21,03,28,10.10
2017,05,21,03,29,10.10
2017,05,21,03,30,10.10
2017,05,21,03,31,10.00
2017,05,21,03,32,10.00
2017,05,21,03,33,10.00
2017,05,21,03,34,10.00
2017,05,21,03,35,10.00
2017,05,21,03,36,10.00
2017,05,21,03,37,10.00
2017,05,21,03,38,9.90
2017,05,21,03,39,10.00
2017,05,21,03,40,10.00
2017,05,21,03,41,10.00
2017,05,21,03,42,10.00
2017,05,21,03,43,9.90
2017,05,21,03,44,9.90
2017,05,21,03,45,9.90
2017,05,21,03,46,9.90
2017,05,21,03,47,9.90
2017,05,21,03,48,9.90
2017,05,21,03,49,9.90
2017,05,21,03,50,9.90
2017,05,21,03,51,9.90
2017,05,21,03,52,9.90
2017,05,21,03,53,9.90
2017,05,21,03,54,9.90
2017,05,21,03,55,9.90
2017,05,21,03,56,9.90
2017,05,21,03,57,9.90
2017,05,21,03,58,9.90
2017,05,21,03,59,9.90
2017,05,21,04,00,9.90
2017,05,21,04,01,9.90
2017,05,21,04,02,9.90
2017,05,21,04,03,9.90
2017,05,21,04,04,9.90
2017,05,21,04,05,9.90
2017,05,21,04,06,9.90
2017,05,21,04,07,9.90
2017,05,21,04,08,9.90
2017,05,21,04,09,9.90
2017,05,21,04,10,9.80
2017,05,21,04,11,9.80
2017,05,21,04,12,9.80
2017,05,21,04,13,9.80
2017,05,21,04,14,9.80
2017,05,21,04,15,9.80
2017,05,21,04,16,9.80
2017,05,21,04,17,9.80
2017,05,21,04,18,9.80
2017,05,21,04,19,9.80
2017,05,21,04,20,9.80
2017,05,21,04,21,9.80
2017,05,21,04,22,9.80
2017,05,21,04,23,9.80
2017,05,21,04,24,9.80
2017,05,21,04,25,9.80
2017,05,21,04,26,9.80
2017,05,21,04,27,9.70
2017,05,21,04,28,9.70
2017,05,21,04,29,9.70
2017,05,21,04,30,9.80
2017,05,21,04,31,9.70
2017,05,21,04,32,9.70
2017,05,21,04,33,9.70
2017,05,21,04,34,9.70
2017,05,21,04,35,9.70
2017,05,21,04,36,9.70
2017,05,21,04,37,9.70
2017,05,21,04,38,9.70
2017,05,21,04,39,9.70
2017,05,21,04,40,9.70
2017,05,21,04,41,9.70
2017,05,21,04,42,9.70
2017,05,21,04,43,9.70
2017,05,21,04,44,9.60
2017,05,21,04,45,9.60
2017,05,21,04,46,9.60
2017,05,21,04,47,9.60
2017,05,21,04,48,9.60
2017,05,21,04,49,9.60
2017,05,21,04,50,9.50
2017,05,21,04,51,9.50
2017,05,21,04,52,9.50
2017,05,21,04,53,9.40
2017,05,21,04,54,9.40
2017,05,21,04,55,9.40
2017,05,21,04,56,9.40
2017,05,21,04,57,9.40
2017,05,21,04,58,9.40
2017,05,21,04,59,9.40
2017,05,21,05,00,9.40
2017,05,21,05,01,9.40
2017,05,21,05,02,9.40
2017,05,21,05,03,9.40
2017,05,21,05,04,9.40
2017,05,21,05,05,9.40
2017,05,21,05,06,9.40
2017,05,21,05,07,9.40
2017,05,21,05,08,9.40
2017,05,21,05,09,9.30
2017,05,21,05,10,9.30
2017,05,21,05,11,9.30
2017,05,21,05,12,9.30
2017,05,21,05,13,9.30
2017,05,21,05,14,9.20
2017,05,21,05,15,9.20
2017,05,21,05,16,9.20
2017,05,21,05,17,9.20
2017,05,21,05,18,9.20
2017,05,21,05,19,9.20
2017,05,21,05,20,9.20
2017,05,21,05,21,9.20
2017,05,21,05,22,9.20
2017,05,21,05,23,9.20
2017,05,21,05,24,9.10
2017,05,21,05,25,9.10
2017,05,21,05,26,9.10
2017,05,21,05,27,9.10
2017,05,21,05,28,9.00
2017,05,21,05,29,9.00
2017,05,21,05,30,9.00
2017,05,21,05,31,8.90
2017,05,21,05,32,8.90
2017,05,21,05,33,8.90
2017,05,21,05,34,8.90
2017,05,21,05,35,8.90
2017,05,21,05,36,8.80
2017,05,21,05,37,8.80
2017,05,21,05,38,8.80
2017,05,21,05,39,8.80
2017,05,21,05,40,8.80
2017,05,21,05,41,8.80
2017,05,21,05,42,8.80
2017,05,21,05,43,8.70
2017,05,21,05,44,8.70
2017,05,21,05,45,8.70
2017,05,21,05,46,8.70
2017,05,21,05,47,8.80
2017,05,21,05,48,8.80
2017,05,21,05,49,8.80
2017,05,21,05,50,8.70
2017,05,21,05,51,8.70
2017,05,21,05,52,8.70
2017,05,21,05,53,8.70
2017,05,21,05,54,8.70
2017,05,21,05,55,8.60
2017,05,21,05,56,8.60
2017,05,21,05,57,8.60
2017,05,21,05,58,8.60
2017,05,21,05,59,8.60
2017,05,21,06,00,8.60
2017,05,21,06,01,8.60
2017,05,21,06,02,8.60
2017,05,21,06,03,8.60
2017,05,21,06,04,8.70
2017,05,21,06,05,8.70
2017,05,21,06,06,8.70
2017,05,21,06,07,8.70
2017,05,21,06,08,8.70
2017,05,21,06,09,8.70
2017,05,21,06,10,8.70
2017,05,21,06,11,8.70
2017,05,21,06,12,8.70
2017,05,21,06,13,8.70
2017,05,21,06,14,8.70
2017,05,21,06,15,8.70
2017,05,21,06,16,8.70
2017,05,21,06,17,8.70
2017,05,21,06,18,8.70
2017,05,21,06,19,8.70
2017,05,21,06,20,8.80
2017,05,21,06,21,8.80
2017,05,21,06,22,8.80
2017,05,21,06,23,8.80
2017,05,21,06,24,8.80
2017,05,21,06,25,8.90
2017,05,21,06,26,8.90
2017,05,21,06,27,8.90
2017,05,21,06,28,9.00
2017,05,21,06,29,9.00
2017,05,21,06,30,9.10
2017,05,21,06,31,9.10
2017,05,21,06,32,9.20
2017,05,21,06,33,9.20
2017,05,21,06,34,9.20
2017,05,21,06,35,9.30
2017,05,21,06,36,9.30
2017,05,21,06,37,9.40
2017,05,21,06,38,9.40
2017,05,21,06,39,9.40
2017,05,21,06,40,9.50
2017,05,21,06,41,9.60
2017,05,21,06,42,9.60
2017,05,21,06,43,9.70
2017,05,21,06,44,9.80
2017,05,21,06,45,9.90
2017,05,21,06,46,9.90
2017,05,21,06,47,10.00
2017,05,21,06,48,10.10
2017,05,21,06,49,10.20
2017,05,21,06,50,10.20
2017,05,21,06,51,10.30
2017,05,21,06,52,10.30
2017,05,21,06,53,10.40
2017,05,21,06,54,10.40
2017,05,21,06,55,10.50
2017,05,21,06,56,10.50
2017,05,21,06,57,10.60
2017,05,21,06,58,10.60
2017,05,21,06,59,10.60
2017,05,21,07,00,10.70
2017,05,21,07,01,10.80
2017,05,21,07,02,10.90
2017,05,21,07,03,11.10
2017,05,21,07,04,11.20
2017,05,21,07,05,11.30
2017,05,21,07,06,11.40
2017,05,21,07,07,11.50
2017,05,21,07,08,11.60
2017,05,21,07,09,11.80
2017,05,21,07,10,11.90
2017,05,21,07,11,12.00
2017,05,21,07,12,12.10
2017,05,21,07,13,12.20
2017,05,21,07,14,12.30
2017,05,21,07,15,12.40
2017,05,21,07,16,12.40
2017,05,21,07,17,12.40
2017,05,21,07,18,12.40
2017,05,21,07,19,12.50
2017,05,21,07,20,12.50
2017,05,21,07,21,12.50
2017,05,21,07,22,12.60
2017,05,21,07,23,12.70
2017,05,21,07,24,12.70
2017,05,21,07,25,12.80
2017,05,21,07,26,12.80
2017,05,21,07,27,12.80
2017,05,21,07,28,12.90
2017,05,21,07,29,12.90
2017,05,21,07,30,13.00
2017,05,21,07,31,13.00
2017,05,21,07,32,13.10
2017,05,21,07,33,13.10
2017,05,21,07,34,13.10
2017,05,21,07,35,13.20
2017,05,21,07,36,13.20
2017,05,21,07,37,13.20
2017,05,21,07,38,13.30
2017,05,21,07,39,13.30
2017,05,21,07,40,13.30
2017,05,21,07,41,13.40
2017,05,21,07,42,13.50
2017,05,21,07,43,13.50
2017,05,21,07,44,13.60
2017,05,21,07,45,13.60
2017,05,21,07,46,13.60
2017,05,21,07,47,13.70
2017,05,21,07,48,13.70
2017,05,21,07,49,13.80
2017,05,21,07,50,13.80
2017,05,21,07,51,13.90
2017,05,21,07,52,14.00
2017,05,21,07,53,14.00
2017,05,21,07,54,14.10
2017,05,21,07,55,14.20
2017,05,21,07,56,14.30
2017,05,21,07,57,14.40
2017,05,21,07,58,14.50
2017,05,21,07,59,14.60
2017,05,21,08,00,14.80
2017,05,21,08,01,14.90
2017,05,21,08,02,15.00
2017,05,21,08,03,15.10
2017,05,21,08,04,15.10
2017,05,21,08,05,15.20
2017,05,21,08,06,15.30
2017,05,21,08,07,15.40
2017,05,21,08,08,15.50
2017,05,21,08,09,15.60
2017,05,21,08,10,15.70
2017,05,21,08,11,15.80
2017,05,21,08,12,15.80
2017,05,21,08,13,15.90
2017,05,21,08,14,15.90
2017,05,21,08,15,15.90
2017,05,21,08,16,16.00
2017,05,21,08,17,16.00
2017,05,21,08,18,16.10
2017,05,21,08,19,16.10
2017,05,21,08,20,16.10
2017,05,21,08,21,16.20
2017,05,21,08,22,16.20
2017,05,21,08,23,16.30
2017,05,21,08,24,16.30
2017,05,21,08,25,16.40
2017,05,21,08,26,16.40
2017,05,21,08,27,16.50
2017,05,21,08,28,16.60
2017,05,21,08,29,16.70
2017,05,21,08,30,16.80
2017,05,21,08,31,16.90
2017,05,21,08,32,17.00
2017,05,21,08,33,17.10
2017,05,21,08,34,17.20
2017,05,21,08,35,17.30
2017,05,21,08,36,17.30
2017,05,21,08,37,17.40
2017,05,21,08,38,17.30
2017,05,21,08,39,17.30
2017,05,21,08,40,17.30
2017,05,21,08,41,17.30
2017,05,21,08,42,17.30
2017,05,21,08,43,17.40
2017,05,21,08,44,17.40
2017,05,21,08,45,17.40
2017,05,21,08,46,17.50
2017,05,21,08,47,17.50
2017,05,21,08,48,17.60
2017,05,21,08,49,17.60
2017,05,21,08,50,17.70
2017,05,21,08,51,17.80
2017,05,21,08,52,17.90
2017,05,21,08,53,18.00
2017,05,21,08,54,18.10
2017,05,21,08,55,18.20
2017,05,21,08,56,18.30
2017,05,21,08,57,18.40
2017,05,21,08,58,18.60
2017,05,21,08,59,18.70
2017,05,21,09,00,18.80
2017,05,21,09,01,18.90
2017,05,21,09,02,19.00
2017,05,21,09,03,19.20
2017,05,21,09,04,19.30
2017,05,21,09,05,19.30
2017,05,21,09,06,19.40
2017,05,21,09,07,19.40
2017,05,21,09,08,19.40
2017,05,21,09,09,19.30
2017,05,21,09,10,19.30
2017,05,21,09,11,19.40
2017,05,21,09,12,19.40
2017,05,21,09,13,19.50
2017,05,21,09,14,19.50
2017,05,21,09,15,19.60
2017,05,21,09,16,19.60
2017,05,21,09,17,19.70
2017,05,21,09,18,19.80
2017,05,21,09,19,19.80
2017,05,21,09,20,19.80
2017,05,21,09,21,19.90
2017,05,21,09,22,20.00
2017,05,21,09,23,20.10
2017,05,21,09,24,20.10
2017,05,21,09,25,20.20
2017,05,21,09,26,20.30
2017,05,21,09,27,20.30
2017,05,21,09,28,20.30
2017,05,21,09,29,20.30
2017,05,21,09,30,20.30
2017,05,21,09,31,20.40
2017,05,21,09,32,20.40
2017,05,21,09,33,20.30
2017,05,21,09,34,20.30
2017,05,21,09,35,20.20
2017,05,21,09,36,20.20
2017,05,21,09,37,20.20
2017,05,21,09,38,20.20
2017,05,21,09,39,20.30
2017,05,21,09,40,20.30
2017,05,21,09,41,20.30
2017,05,21,09,42,20.30
2017,05,21,09,43,20.20
2017,05,21,09,44,20.20
2017,05,21,09,45,20.20
2017,05,21,09,46,20.20
2017,05,21,09,47,20.20
2017,05,21,09,48,20.10
2017,05,21,09,49,20.00
2017,05,21,09,50,20.00
2017,05,21,09,51,20.00
2017,05,21,09,52,20.10
2017,05,21,09,53,20.10
2017,05,21,09,54,20.10
2017,05,21,09,55,20.20
2017,05,21,09,56,20.20
2017,05,21,09,57,20.20
2017,05,21,09,58,20.30
2017,05,21,09,59,20.30
2017,05,21,10,00,20.40
2017,05,21,10,01,20.40
2017,05,21,10,02,20.40
2017,05,21,10,03,20.30
2017,05,21,10,04,20.30
2017,05,21,10,05,20.30
2017,05,21,10,06,20.20
2017,05,21,10,07,20.20
2017,05,21,10,08,20.20
2017,05,21,10,09,20.30
2017,05,21,10,10,20.30
2017,05,21,10,11,20.30
2017,05,21,10,12,20.30
2017,05,21,10,13,20.30
2017,05,21,10,14,20.30
2017,05,21,10,15,20.30
2017,05,21,10,16,20.30
2017,05,21,10,17,20.30
2017,05,21,10,18,20.40
2017,05,21,10,19,20.40
2017,05,21,10,20,20.50
2017,05,21,10,21,20.60
2017,05,21,10,22,20.70
2017,05,21,10,23,20.70
2017,05,21,10,24,20.70
2017,05,21,10,25,20.70
2017,05,21,10,26,20.70
2017,05,21,10,27,20.70
2017,05,21,10,28,20.70
2017,05,21,10,29,20.80
2017,05,21,10,30,20.80
2017,05,21,10,31,20.90
2017,05,21,10,32,20.90
2017,05,21,10,33,20.90
2017,05,21,10,34,21.00
2017,05,21,10,35,21.00
2017,05,21,10,36,21.00
2017,05,21,10,37,21.00
2017,05,21,10,38,21.10
2017,05,21,10,39,21.10
2017,05,21,10,40,21.10
2017,05,21,10,41,21.00
2017,05,21,10,42,20.80
2017,05,21,10,43,20.60
2017,05,21,10,44,20.30
2017,05,21,10,45,20.00
2017,05,21,10,46,19.90
2017,05,21,10,47,19.80
2017,05,21,10,48,19.80
2017,05,21,10,49,19.80
2017,05,21,10,50,19.60
2017,05,21,10,51,19.40
2017,05,21,10,52,19.20
2017,05,21,10,53,19.10
2017,05,21,10,54,19.00
2017,05,21,10,55,18.90
2017,05,21,10,56,18.80
2017,05,21,10,57,18.80
2017,05,21,10,58,18.80
2017,05,21,10,59,18.80
2017,05,21,11,00,18.80
2017,05,21,11,01,18.80
2017,05,21,11,02,18.80
2017,05,21,11,03,18.70
2017,05,21,11,04,18.60
2017,05,21,11,05,18.60
2017,05,21,11,06,18.50
2017,05,21,11,07,18.50
2017,05,21,11,08,18.60
2017,05,21,11,09,18.70
2017,05,21,11,10,18.70
2017,05,21,11,11,18.80
2017,05,21,11,12,18.80
2017,05,21,11,13,18.80
2017,05,21,11,14,18.90
2017,05,21,11,15,18.90
2017,05,21,11,16,18.90
2017,05,21,11,17,18.90
2017,05,21,11,18,18.90
2017,05,21,11,19,18.90
2017,05,21,11,20,18.90
2017,05,21,11,21,18.90
2017,05,21,11,22,18.90
2017,05,21,11,23,18.90
2017,05,21,11,24,18.90
2017,05,21,11,25,18.90
2017,05,21,11,26,18.90
2017,05,21,11,27,19.00
2017,05,21,11,28,19.00
2017,05,21,11,29,19.10
2017,05,21,11,30,19.20
2017,05,21,11,31,19.20
2017,05,21,11,32,19.30
2017,05,21,11,33,19.40
2017,05,21,11,34,19.50
2017,05,21,11,35,19.60
2017,05,21,11,36,19.60
2017,05,21,11,37,19.60
2017,05,21,11,38,19.60
2017,05,21,11,39,19.60
2017,05,21,11,40,19.60
2017,05,21,11,41,19.50
2017,05,21,11,42,19.50
2017,05,21,11,43,19.60
2017,05,21,11,44,19.60
2017,05,21,11,45,19.60
2017,05,21,11,46,19.60
2017,05,21,11,47,19.60
2017,05,21,11,48,19.50
2017,05,21,11,49,19.40
2017,05,21,11,50,19.40
2017,05,21,11,51,19.50
2017,05,21,11,52,19.50
2017,05,21,11,53,19.60
2017,05,21,11,54,19.60
2017,05,21,11,55,19.70
2017,05,21,11,56,19.70
2017,05,21,11,57,19.80
2017,05,21,11,58,19.80
2017,05,21,11,59,19.80
2017,05,21,12,00,19.80
2017,05,21,12,01,19.80
2017,05,21,12,02,19.80
2017,05,21,12,03,19.80
2017,05,21,12,04,19.80
2017,05,21,12,05,19.90
2017,05,21,12,06,20.00
2017,05,21,12,07,20.00
2017,05,21,12,08,20.00
2017,05,21,12,09,19.90
2017,05,21,12,10,19.80
2017,05,21,12,11,19.80
2017,05,21,12,12,19.80
2017,05,21,12,13,19.80
2017,05,21,12,14,19.90
2017,05,21,12,15,19.90
2017,05,21,12,16,20.10
2017,05,21,12,17,20.20
2017,05,21,12,18,20.30
2017,05,21,12,19,20.40
2017,05,21,12,20,20.50
2017,05,21,12,21,20.50
2017,05,21,12,22,20.50
2017,05,21,12,23,20.50
2017,05,21,12,24,20.50
2017,05,21,12,25,20.50
2017,05,21,12,26,20.40
2017,05,21,12,27,20.40
2017,05,21,12,28,20.30
2017,05,21,12,29,20.30
2017,05,21,12,30,20.20
2017,05,21,12,31,20.20
2017,05,21,12,32,20.20
2017,05,21,12,33,20.20
2017,05,21,12,34,20.30
2017,05,21,12,35,20.30
2017,05,21,12,36,20.30
2017,05,21,12,37,20.20
2017,05,21,12,38,20.30
2017,05,21,12,39,20.30
2017,05,21,12,40,20.30
2017,05,21,12,41,20.40
2017,05,21,12,42,20.50
2017,05,21,12,43,20.50
2017,05,21,12,44,20.50
2017,05,21,12,45,20.60
2017,05,21,12,46,20.60
2017,05,21,12,47,20.70
2017,05,21,12,48,20.70
2017,05,21,12,49,20.70
2017,05,21,12,50,20.80
2017,05,21,12,51,20.90
2017,05,21,12,52,21.00
2017,05,21,12,53,21.10
2017,05,21,12,54,21.10
2017,05,21,12,55,21.00
2017,05,21,12,56,20.90
2017,05,21,12,57,20.90
2017,05,21,12,58,20.90
2017,05,21,12,59,20.90
2017,05,21,13,00,20.80
2017,05,21,13,01,20.80
2017,05,21,13,02,20.80
2017,05,21,13,03,20.80
2017,05,21,13,04,20.80
2017,05,21,13,05,20.80
2017,05,21,13,06,20.90
2017,05,21,13,07,20.90
2017,05,21,13,08,21.00
2017,05,21,13,09,21.00
2017,05,21,13,10,21.00
2017,05,21,13,11,21.10
2017,05,21,13,12,21.10
2017,05,21,13,13,21.10
2017,05,21,13,14,21.10
2017,05,21,13,15,21.20
2017,05,21,13,16,21.20
2017,05,21,13,17,21.30
2017,05,21,13,18,21.30
2017,05,21,13,19,21.40
2017,05,21,13,20,21.40
2017,05,21,13,21,21.40
2017,05,21,13,22,21.40
2017,05,21,13,23,21.40
2017,05,21,13,24,21.40
2017,05,21,13,25,21.40
2017,05,21,13,26,21.40
2017,05,21,13,27,21.40
2017,05,21,13,28,21.40
2017,05,21,13,29,21.30
2017,05,21,13,30,21.30
2017,05,21,13,31,21.30
2017,05,21,13,32,21.30
2017,05,21,13,33,21.20
2017,05,21,13,34,21.10
2017,05,21,13,35,21.10
2017,05,21,13,36,21.10
2017,05,21,13,37,21.10
2017,05,21,13,38,21.20
2017,05,21,13,39,21.30
2017,05,21,13,40,21.40
2017,05,21,13,41,21.50
2017,05,21,13,42,21.60
2017,05,21,13,43,21.70
2017,05,21,13,44,21.70
2017,05,21,13,45,21.60
2017,05,21,13,46,21.60
2017,05,21,13,47,21.60
2017,05,21,13,48,21.60
2017,05,21,13,49,21.50
2017,05,21,13,50,21.40
2017,05,21,13,51,21.40
2017,05,21,13,52,21.30
2017,05,21,13,53,21.30
2017,05,21,13,54,21.30
2017,05,21,13,55,21.30
2017,05,21,13,56,21.30
2017,05,21,13,57,21.30
2017,05,21,13,58,21.30
2017,05,21,13,59,21.40
2017,05,21,14,00,21.40
2017,05,21,14,01,21.40
2017,05,21,14,02,21.30
2017,05,21,14,03,21.30
2017,05,21,14,04,21.20
2017,05,21,14,05,21.10
2017,05,21,14,06,21.10
2017,05,21,14,07,21.20
2017,05,21,14,08,21.20
2017,05,21,14,09,21.20
2017,05,21,14,10,21.10
2017,05,21,14,11,21.10
2017,05,21,14,12,21.10
2017,05,21,14,13,21.00
2017,05,21,14,14,21.00
2017,05,21,14,15,21.00
2017,05,21,14,16,21.00
2017,05,21,14,17,21.10
2017,05,21,14,18,21.20
2017,05,21,14,19,21.30
2017,05,21,14,20,21.30
2017,05,21,14,21,21.30
2017,05,21,14,22,21.30
2017,05,21,14,23,21.30
2017,05,21,14,24,21.30
2017,05,21,14,25,21.30
2017,05,21,14,26,21.30
2017,05,21,14,27,21.30
2017,05,21,14,28,21.30
2017,05,21,14,29,21.30
2017,05,21,14,30,21.30
2017,05,21,14,31,21.30
2017,05,21,14,32,21.30
2017,05,21,14,33,21.30
2017,05,21,14,34,21.30
2017,05,21,14,35,21.30
2017,05,21,14,36,21.30
2017,05,21,14,37,21.40
2017,05,21,14,38,21.40
2017,05,21,14,39,21.50
2017,05,21,14,40,21.50
2017,05,21,14,41,21.60
2017,05,21,14,42,21.60
2017,05,21,14,43,21.60
2017,05,21,14,44,21.60
2017,05,21,14,45,21.60
2017,05,21,14,46,21.70
2017,05,21,14,47,21.60
2017,05,21,14,48,21.60
2017,05,21,14,49,21.70
2017,05,21,14,50,21.70
2017,05,21,14,51,21.80
2017,05,21,14,52,21.80
2017,05,21,14,53,21.70
2017,05,21,14,54,21.70
2017,05,21,14,55,21.80
2017,05,21,14,56,21.80
2017,05,21,14,57,21.90
2017,05,21,14,58,21.90
2017,05,21,14,59,21.90
2017,05,21,15,00,22.00
2017,05,21,15,01,22.00
2017,05,21,15,02,22.10
2017,05,21,15,03,22.10
2017,05,21,15,04,22.10
2017,05,21,15,05,22.10
2017,05,21,15,06,22.10
2017,05,21,15,07,22.10
2017,05,21,15,08,22.10
2017,05,21,15,09,22.10
2017,05,21,15,10,22.10
2017,05,21,15,11,22.10
2017,05,21,15,12,22.10
2017,05,21,15,13,22.20
2017,05,21,15,14,22.20
2017,05,21,15,15,22.20
2017,05,21,15,16,22.20
2017,05,21,15,17,22.20
2017,05,21,15,18,22.20
2017,05,21,15,19,22.10
2017,05,21,15,20,22.10
2017,05,21,15,21,22.10
2017,05,21,15,22,22.00
2017,05,21,15,23,22.10
2017,05,21,15,24,22.10
2017,05,21,15,25,22.10
2017,05,21,15,26,22.10
2017,05,21,15,27,22.10
2017,05,21,15,28,22.10
2017,05,21,15,29,22.20
2017,05,21,15,30,22.20
2017,05,21,15,31,22.30
2017,05,21,15,32,22.30
2017,05,21,15,33,22.30
2017,05,21,15,34,22.30
2017,05,21,15,35,22.40
2017,05,21,15,36,22.40
2017,05,21,15,37,22.40
2017,05,21,15,38,22.40
2017,05,21,15,39,22.50
2017,05,21,15,40,22.50
2017,05,21,15,41,22.50
2017,05,21,15,42,22.60
2017,05,21,15,43,22.60
2017,05,21,15,44,22.60
2017,05,21,15,45,22.50
2017,05,21,15,46,22.50
2017,05,21,15,47,22.50
2017,05,21,15,48,22.50
2017,05,21,15,49,22.50
2017,05,21,15,50,22.50
2017,05,21,15,51,22.50
2017,05,21,15,52,22.50
2017,05,21,15,53,22.50
2017,05,21,15,54,22.40
2017,05,21,15,55,22.40
2017,05,21,15,56,22.50
2017,05,21,15,57,22.50
2017,05,21,15,58,22.50
2017,05,21,15,59,22.40
2017,05,21,16,00,22.40
2017,05,21,16,01,22.40
2017,05,21,16,02,22.40
2017,05,21,16,03,22.40
2017,05,21,16,04,22.40
2017,05,21,16,05,22.40
2017,05,21,16,06,22.40
2017,05,21,16,07,22.40
2017,05,21,16,08,22.40
2017,05,21,16,09,22.40
2017,05,21,16,10,22.40
2017,05,21,16,11,22.40
2017,05,21,16,12,22.40
2017,05,21,16,13,22.40
2017,05,21,16,14,22.40
2017,05,21,16,15,22.50
2017,05,21,16,16,22.60
2017,05,21,16,17,22.60
2017,05,21,16,18,22.50
2017,05,21,16,19,22.50
2017,05,21,16,20,22.50
2017,05,21,16,21,22.40
2017,05,21,16,22,22.40
2017,05,21,16,23,22.40
2017,05,21,16,24,22.40
2017,05,21,16,25,22.40
2017,05,21,16,26,22.50
2017,05,21,16,27,22.50
2017,05,21,16,28,22.40
2017,05,21,16,29,22.40
2017,05,21,16,30,22.40
2017,05,21,16,31,22.40
2017,05,21,16,32,22.40
2017,05,21,16,33,22.50
2017,05,21,16,34,22.50
2017,05,21,16,35,22.50
2017,05,21,16,36,22.60
2017,05,21,16,37,22.60
2017,05,21,16,38,22.60
2017,05,21,16,39,22.60
2017,05,21,16,40,22.60
2017,05,21,16,41,22.60
2017,05,21,16,42,22.60
2017,05,21,16,43,22.60
2017,05,21,16,44,22.60
2017,05,21,16,45,22.60
2017,05,21,16,46,22.70
2017,05,21,16,47,22.70
2017,05,21,16,48,22.70
2017,05,21,16,49,22.70
2017,05,21,16,50,22.70
2017,05,21,16,51,22.70
2017,05,21,16,52,22.70
2017,05,21,16,53,22.70
2017,05,21,16,54,22.70
2017,05,21,16,55,22.70
2017,05,21,16,56,22.80
2017,05,21,16,57,22.80
2017,05,21,16,58,22.80
2017,05,21,16,59,22.70
2017,05,21,17,00,22.70
2017,05,21,17,01,22.70
2017,05,21,17,02,22.70
2017,05,21,17,03,22.70
2017,05,21,17,04,22.70
2017,05,21,17,05,22.70
2017,05,21,17,06,22.60
2017,05,21,17,07,22.60
2017,05,21,17,08,22.60
2017,05,21,17,09,22.60
2017,05,21,17,10,22.60
2017,05,21,17,11,22.50
2017,05,21,17,12,22.50
2017,05,21,17,13,22.50
2017,05,21,17,14,22.50
2017,05,21,17,15,22.50
2017,05,21,17,16,22.40
2017,05,21,17,17,22.40
2017,05,21,17,18,22.40
2017,05,21,17,19,22.40
2017,05,21,17,20,22.40
2017,05,21,17,21,22.40
2017,05,21,17,22,22.40
2017,05,21,17,23,22.40
2017,05,21,17,24,22.40
2017,05,21,17,25,22.40
2017,05,21,17,26,22.40
2017,05,21,17,27,22.40